When you browse on this site, cookies collect data to enhance your experience and personalize the content and advertising you see.
Visit our Privacy Policy to learn more. By continuing to use the site, you agree to this use of cookies and data.
  • In Hungary
  • List of Countries
  • For 7 days
  • Water Temperature
  • Satellite Maps
  • Weather Map
  • News
  • Weather Widgets
  • user-avatar
    Login

    Hourly Weather Summit

    Today, 19 December, Wednesday

    Time Temperature Precipitation Wind Pressure Humidity
    00:00 -5°C° 0 mm 3 mps 759 mmHg 55%
    01:00 -5°C° 0 mm 3 mps 759 mmHg 54%
    02:00 -5°C° 0 mm 3 mps 759 mmHg 54%
    03:00 -4°C° 0 mm 2 mps 759 mmHg 54%
    04:00 -4°C° 0 mm 2 mps 759 mmHg 54%
    05:00 -4°C° 0 mm 2 mps 759 mmHg 54%
    06:00 -4°C° 0 mm 2 mps 759 mmHg 55%
    07:00 -4°C° 0 mm 2 mps 759 mmHg 55%
    08:00 -2°C° 0 mm 2 mps 759 mmHg 51%
    09:00 -1°C° 0 mm 2 mps 759 mmHg 47%
    10:00 +1°C° 0 mm 2 mps 759 mmHg 42%
    11:00 +3°C° 0 mm 2 mps 758 mmHg 41%
    12:00 +3°C° 0 mm 3 mps 758 mmHg 39%
    13:00 +4°C° 0 mm 3 mps 758 mmHg 38%
    14:00 +4°C° 0 mm 2 mps 757 mmHg 44%
    15:00 +4°C° 0 mm 2 mps 757 mmHg 50%
    16:00 +3°C° 0 mm 2 mps 757 mmHg 55%
    17:00 +3°C° 0 mm 2 mps 757 mmHg 60%
    18:00 +2°C° 0 mm 2 mps 757 mmHg 65%
    19:00 +1°C° 0 mm 2 mps 757 mmHg 70%
    20:00 +1°C° 0 mm 2 mps 757 mmHg 72%
    21:00 +1°C° 0 mm 2 mps 757 mmHg 74%
    22:00 +1°C° 0 mm 2 mps 757 mmHg 76%
    23:00 +1°C° 0 mm 2 mps 757 mmHg 77%

    Tomorrow, 20 December, Thursday

    Time Temperature Precipitation Wind Pressure Humidity
    00:00 -1°C° 0 mm 2 mps 757 mmHg 78%
    01:00 -1°C° 0 mm 2 mps 757 mmHg 79%
    02:00 -1°C° 0 mm 2 mps 757 mmHg 80%
    03:00 +1°C° 0 mm 1 mps 757 mmHg 82%
    04:00 +1°C° 0 mm 1 mps 757 mmHg 83%
    05:00 +1°C° 0 mm 1 mps 757 mmHg 83%
    06:00 +1°C° 0 mm 1 mps 757 mmHg 84%
    07:00 0°C° 0 mm 0 mps 757 mmHg 85%
    08:00 +3°C° 0 mm 1 mps 757 mmHg 79%
    09:00 +4°C° 0 mm 1 mps 757 mmHg 73%
    10:00 +5°C° 0 mm 1 mps 758 mmHg 67%
    11:00 +7°C° 0 mm 1 mps 757 mmHg 64%
    12:00 +8°C° 0 mm 1 mps 756 mmHg 62%
    13:00 +9°C° 0 mm 1 mps 756 mmHg 59%
    14:00 +8°C° 0 mm 1 mps 755 mmHg 63%
    15:00 +7°C° 0 mm 2 mps 755 mmHg 67%
    16:00 +6°C° 0 mm 2 mps 755 mmHg 71%
    17:00 +6°C° 0.2 mm 2 mps 754 mmHg 76%
    18:00 +5°C° 0.2 mm 3 mps 754 mmHg 81%
    19:00 +5°C° 0.2 mm 3 mps 754 mmHg 86%
    20:00 +7°C° 0.6 mm 3 mps 753 mmHg 89%
    21:00 +6°C° 0.6 mm 4 mps 752 mmHg 92%
    22:00 +7°C° 0.6 mm 4 mps 752 mmHg 95%
    23:00 +8°C° 2.1 mm 5 mps 750 mmHg 95%

    Day after tomorrow, 21 December, Friday

    Time Temperature Precipitation Wind Pressure Humidity
    00:00 +9°C° 2.1 mm 5 mps 749 mmHg 95%
    01:00 +10°C° 2.1 mm 6 mps 748 mmHg 95%
    02:00 +11°C° 4.7 mm 6 mps 746 mmHg 95%
    03:00 +11°C° 4.7 mm 7 mps 744 mmHg 95%
    04:00 +11°C° 4.7 mm 7 mps 743 mmHg 94%
    05:00 +12°C° 4.2 mm 7 mps 742 mmHg 95%
    06:00 +14°C° 4.2 mm 7 mps 741 mmHg 95%
    07:00 +15°C° 4.2 mm 7 mps 740 mmHg 95%
    08:00 +15°C° 1.8 mm 6 mps 740 mmHg 95%
    09:00 +15°C° 1.8 mm 5 mps 739 mmHg 96%
    10:00 +15°C° 1.8 mm 5 mps 739 mmHg 96%
    11:00 +15°C° 1.7 mm 4 mps 738 mmHg 96%
    12:00 +16°C° 1.7 mm 3 mps 738 mmHg 97%
    13:00 +15°C° 1.7 mm 2 mps 737 mmHg 98%
    14:00 +14°C° 0.6 mm 3 mps 737 mmHg 97%
    15:00 +14°C° 0.6 mm 4 mps 736 mmHg 96%
    16:00 +15°C° 0.6 mm 5 mps 736 mmHg 95%
    17:00 +14°C° 0.3 mm 5 mps 736 mmHg 94%
    18:00 +14°C° 0.3 mm 6 mps 736 mmHg 93%
    19:00 +14°C° 0.3 mm 6 mps 736 mmHg 92%
    20:00 +13°C° 0 mm 5 mps 736 mmHg 91%
    21:00 +12°C° 0 mm 5 mps 736 mmHg 91%
    22:00 +11°C° 0 mm 4 mps 736 mmHg 91%
    23:00 +11°C° 0.1 mm 4 mps 735 mmHg 87%

    22 December, Saturday

    Time Temperature Precipitation Wind Pressure Humidity
    00:00 +10°C° 0.1 mm 5 mps 735 mmHg 84%
    01:00 +9°C° 0.1 mm 5 mps 735 mmHg 80%
    02:00 +9°C° 0 mm 5 mps 735 mmHg 81%
    03:00 +8°C° 0 mm 5 mps 735 mmHg 81%
    04:00 +8°C° 0 mm 6 mps 735 mmHg 82%
    05:00 +7°C° 0 mm 6 mps 736 mmHg 79%
    06:00 +7°C° 0 mm 6 mps 736 mmHg 76%
    07:00 +5°C° 0 mm 6 mps 737 mmHg 73%
    08:00 +5°C° 0 mm 7 mps 738 mmHg 69%
    09:00 +5°C° 0 mm 7 mps 739 mmHg 66%
    10:00 +5°C° 0 mm 8 mps 740 mmHg 63%
    11:00 +6°C° 0 mm 8 mps 740 mmHg 61%
    12:00 +6°C° 0 mm 8 mps 740 mmHg 59%
    13:00 +6°C° 0 mm 8 mps 741 mmHg 56%
    14:00 +6°C° 0 mm 8 mps 741 mmHg 57%
    15:00 +5°C° 0 mm 7 mps 742 mmHg 58%
    16:00 +5°C° 0 mm 7 mps 743 mmHg 59%
    17:00 +4°C° 0 mm 7 mps 744 mmHg 60%
    18:00 +4°C° 0 mm 7 mps 745 mmHg 62%
    19:00 +3°C° 0 mm 7 mps 746 mmHg 63%
    20:00 +3°C° 0 mm 6 mps 747 mmHg 63%
    21:00 +3°C° 0 mm 6 mps 747 mmHg 64%
    22:00 +2°C° 0 mm 6 mps 748 mmHg 64%
    23:00 +2°C° 0 mm 6 mps 749 mmHg 64%

    23 December, Sunday

    Time Temperature Precipitation Wind Pressure Humidity
    00:00 +1°C° 0 mm 6 mps 749 mmHg 65%
    01:00 +1°C° 0 mm 6 mps 750 mmHg 65%
    02:00 +1°C° 0 mm 6 mps 750 mmHg 65%
    03:00 0°C° 0 mm 5 mps 750 mmHg 66%
    04:00 0°C° 0 mm 5 mps 751 mmHg 67%
    05:00 0°C° 0 mm 5 mps 751 mmHg 67%
    06:00 -1°C° 0 mm 5 mps 752 mmHg 68%
    07:00 -1°C° 0 mm 5 mps 752 mmHg 69%
    08:00 0°C° 0 mm 5 mps 753 mmHg 66%
    09:00 +1°C° 0 mm 5 mps 753 mmHg 62%
    10:00 +2°C° 0 mm 5 mps 753 mmHg 59%
    11:00 +3°C° 0 mm 5 mps 753 mmHg 57%
    12:00 +5°C° 0 mm 5 mps 753 mmHg 55%
    13:00 +6°C° 0 mm 5 mps 752 mmHg 53%
    14:00 +6°C° 0 mm 5 mps 752 mmHg 56%
    15:00 +5°C° 0 mm 4 mps 752 mmHg 58%
    16:00 +5°C° 0 mm 4 mps 753 mmHg 60%
    17:00 +5°C° 0 mm 4 mps 753 mmHg 62%
    18:00 +4°C° 0 mm 3 mps 753 mmHg 65%
    19:00 +4°C° 0 mm 3 mps 754 mmHg 67%
    20:00 +3°C° 0 mm 3 mps 754 mmHg 70%
    21:00 +2°C° 0 mm 3 mps 754 mmHg 72%
    22:00 +2°C° 0 mm 3 mps 754 mmHg 75%
    23:00 +2°C° 0 mm 3 mps 754 mmHg 75%

    24 December, Monday

    Time Temperature Precipitation Wind Pressure Humidity
    00:00 +1°C° 0 mm 3 mps 753 mmHg 76%
    01:00 +1°C° 0 mm 3 mps 753 mmHg 77%
    02:00 +1°C° 0 mm 3 mps 753 mmHg 76%
    03:00 +1°C° 0 mm 3 mps 753 mmHg 76%
    04:00 0°C° 0 mm 4 mps 753 mmHg 75%
    05:00 0°C° 0 mm 4 mps 753 mmHg 76%
    06:00 0°C° 0 mm 4 mps 753 mmHg 77%
    07:00 -1°C° 0 mm 4 mps 753 mmHg 78%
    08:00 0°C° 0 mm 4 mps 753 mmHg 72%
    09:00 +1°C° 0 mm 5 mps 754 mmHg 66%
    10:00 +2°C° 0 mm 5 mps 754 mmHg 60%
    11:00 +2°C° 0 mm 5 mps 754 mmHg 57%
    12:00 +2°C° 0 mm 5 mps 753 mmHg 53%
    13:00 +3°C° 0 mm 5 mps 753 mmHg 50%
    14:00 +2°C° 0 mm 5 mps 753 mmHg 49%
    15:00 +2°C° 0 mm 5 mps 754 mmHg 49%
    16:00 +1°C° 0 mm 5 mps 754 mmHg 49%
    17:00 +1°C° 0 mm 5 mps 755 mmHg 52%
    18:00 0°C° 0 mm 5 mps 755 mmHg 55%
    19:00 -1°C° 0 mm 5 mps 756 mmHg 57%
    20:00 -1°C° 0 mm 5 mps 756 mmHg 58%
    21:00 -2°C° 0 mm 5 mps 756 mmHg 60%
    22:00 -2°C° 0 mm 5 mps 757 mmHg 61%
    23:00 -2°C° 0 mm 5 mps 757 mmHg 61%
    Show more